Year,Month,Day,Hour,Minute,Value (Times are PST for temperature in C)
2010,08,13,00,00,17.80
2010,08,13,00,01,17.80
2010,08,13,00,02,17.80
2010,08,13,00,03,17.80
2010,08,13,00,04,17.80
2010,08,13,00,05,17.70
2010,08,13,00,06,17.70
2010,08,13,00,07,17.70
2010,08,13,00,08,17.70
2010,08,13,00,09,17.60
2010,08,13,00,10,17.60
2010,08,13,00,11,17.60
2010,08,13,00,12,17.60
2010,08,13,00,13,17.60
2010,08,13,00,14,17.60
2010,08,13,00,15,17.60
2010,08,13,00,16,17.60
2010,08,13,00,17,17.50
2010,08,13,00,18,17.50
2010,08,13,00,19,17.40
2010,08,13,00,20,17.40
2010,08,13,00,21,17.30
2010,08,13,00,22,17.20
2010,08,13,00,23,17.20
2010,08,13,00,24,17.20
2010,08,13,00,25,17.20
2010,08,13,00,26,17.10
2010,08,13,00,27,17.10
2010,08,13,00,28,17.00
2010,08,13,00,29,17.00
2010,08,13,00,30,17.00
2010,08,13,00,31,17.00
2010,08,13,00,32,17.00
2010,08,13,00,33,17.00
2010,08,13,00,34,17.00
2010,08,13,00,35,17.00
2010,08,13,00,36,17.00
2010,08,13,00,37,17.00
2010,08,13,00,38,17.00
2010,08,13,00,39,17.00
2010,08,13,00,40,17.00
2010,08,13,00,41,16.90
2010,08,13,00,42,16.90
2010,08,13,00,43,16.90
2010,08,13,00,44,16.90
2010,08,13,00,45,16.90
2010,08,13,00,46,17.00
2010,08,13,00,47,17.00
2010,08,13,00,48,16.90
2010,08,13,00,49,16.90
2010,08,13,00,50,16.90
2010,08,13,00,51,16.80
2010,08,13,00,52,16.80
2010,08,13,00,53,16.70
2010,08,13,00,54,16.70
2010,08,13,00,55,16.70
2010,08,13,00,56,16.70
2010,08,13,00,57,16.70
2010,08,13,00,58,16.70
2010,08,13,00,59,16.70
2010,08,13,01,00,16.70
2010,08,13,01,01,16.70
2010,08,13,01,02,16.70
2010,08,13,01,03,16.50
2010,08,13,01,04,16.40
2010,08,13,01,05,16.30
2010,08,13,01,06,16.30
2010,08,13,01,07,16.20
2010,08,13,01,08,16.10
2010,08,13,01,09,16.10
2010,08,13,01,10,16.10
2010,08,13,01,11,16.00
2010,08,13,01,12,15.90
2010,08,13,01,13,15.90
2010,08,13,01,14,15.90
2010,08,13,01,15,15.80
2010,08,13,01,16,15.80
2010,08,13,01,17,15.80
2010,08,13,01,18,15.80
2010,08,13,01,19,15.80
2010,08,13,01,20,15.70
2010,08,13,01,21,15.70
2010,08,13,01,22,15.70
2010,08,13,01,23,15.70
2010,08,13,01,24,15.70
2010,08,13,01,25,15.70
2010,08,13,01,26,15.70
2010,08,13,01,27,15.60
2010,08,13,01,28,15.60
2010,08,13,01,29,15.60
2010,08,13,01,30,15.60
2010,08,13,01,31,15.50
2010,08,13,01,32,15.50
2010,08,13,01,33,15.50
2010,08,13,01,34,15.50
2010,08,13,01,35,15.50
2010,08,13,01,36,15.50
2010,08,13,01,37,15.60
2010,08,13,01,38,15.60
2010,08,13,01,39,15.60
2010,08,13,01,40,15.50
2010,08,13,01,41,15.50
2010,08,13,01,42,15.40
2010,08,13,01,43,15.30
2010,08,13,01,44,15.20
2010,08,13,01,45,15.10
2010,08,13,01,46,15.10
2010,08,13,01,47,15.00
2010,08,13,01,48,14.90
2010,08,13,01,49,14.90
2010,08,13,01,50,14.90
2010,08,13,01,51,14.80
2010,08,13,01,52,14.80
2010,08,13,01,53,14.80
2010,08,13,01,54,14.80
2010,08,13,01,55,14.80
2010,08,13,01,56,14.80
2010,08,13,01,57,14.80
2010,08,13,01,58,14.80
2010,08,13,01,59,14.80
2010,08,13,02,00,14.80
2010,08,13,02,01,14.80
2010,08,13,02,02,14.80
2010,08,13,02,03,14.90
2010,08,13,02,04,15.00
2010,08,13,02,05,15.00
2010,08,13,02,06,15.10
2010,08,13,02,07,15.10
2010,08,13,02,08,15.20
2010,08,13,02,09,15.20
2010,08,13,02,10,15.10
2010,08,13,02,11,15.00
2010,08,13,02,12,15.00
2010,08,13,02,13,14.90
2010,08,13,02,14,14.80
2010,08,13,02,15,14.80
2010,08,13,02,16,14.80
2010,08,13,02,17,14.70
2010,08,13,02,18,14.60
2010,08,13,02,19,14.60
2010,08,13,02,20,14.60
2010,08,13,02,21,14.50
2010,08,13,02,22,14.50
2010,08,13,02,23,14.60
2010,08,13,02,24,14.60
2010,08,13,02,25,14.60
2010,08,13,02,26,14.60
2010,08,13,02,27,14.70
2010,08,13,02,28,14.70
2010,08,13,02,29,14.80
2010,08,13,02,30,14.80
2010,08,13,02,31,14.80
2010,08,13,02,32,14.90
2010,08,13,02,33,14.90
2010,08,13,02,34,15.00
2010,08,13,02,35,15.10
2010,08,13,02,36,15.10
2010,08,13,02,37,15.20
2010,08,13,02,38,15.20
2010,08,13,02,39,15.30
2010,08,13,02,40,15.30
2010,08,13,02,41,15.40
2010,08,13,02,42,15.50
2010,08,13,02,43,15.50
2010,08,13,02,44,15.60
2010,08,13,02,45,15.60
2010,08,13,02,46,15.70
2010,08,13,02,47,15.70
2010,08,13,02,48,15.70
2010,08,13,02,49,15.70
2010,08,13,02,50,15.80
2010,08,13,02,51,15.80
2010,08,13,02,52,15.80
2010,08,13,02,53,15.80
2010,08,13,02,54,15.70
2010,08,13,02,55,15.70
2010,08,13,02,56,15.70
2010,08,13,02,57,15.70
2010,08,13,02,58,15.70
2010,08,13,02,59,15.70
2010,08,13,03,00,15.80
2010,08,13,03,01,15.80
2010,08,13,03,02,15.80
2010,08,13,03,03,15.80
2010,08,13,03,04,15.80
2010,08,13,03,05,15.80
2010,08,13,03,06,15.80
2010,08,13,03,07,15.80
2010,08,13,03,08,15.70
2010,08,13,03,09,15.70
2010,08,13,03,10,15.70
2010,08,13,03,11,15.70
2010,08,13,03,12,15.70
2010,08,13,03,13,15.70
2010,08,13,03,14,15.80
2010,08,13,03,15,15.80
2010,08,13,03,16,15.80
2010,08,13,03,17,15.80
2010,08,13,03,18,15.80
2010,08,13,03,19,15.80
2010,08,13,03,20,15.80
2010,08,13,03,21,15.80
2010,08,13,03,22,15.80
2010,08,13,03,23,15.80
2010,08,13,03,24,15.90
2010,08,13,03,25,15.90
2010,08,13,03,26,16.00
2010,08,13,03,27,16.10
2010,08,13,03,28,16.10
2010,08,13,03,29,16.10
2010,08,13,03,30,16.10
2010,08,13,03,31,16.10
2010,08,13,03,32,16.20
2010,08,13,03,33,16.20
2010,08,13,03,34,16.30
2010,08,13,03,35,16.30
2010,08,13,03,36,16.30
2010,08,13,03,37,16.40
2010,08,13,03,38,16.40
2010,08,13,03,39,16.30
2010,08,13,03,40,16.30
2010,08,13,03,41,16.30
2010,08,13,03,42,16.20
2010,08,13,03,43,16.20
2010,08,13,03,44,16.20
2010,08,13,03,45,16.20
2010,08,13,03,46,16.10
2010,08,13,03,47,16.10
2010,08,13,03,48,16.10
2010,08,13,03,49,16.10
2010,08,13,03,50,16.10
2010,08,13,03,51,16.10
2010,08,13,03,52,16.10
2010,08,13,03,53,16.10
2010,08,13,03,54,16.10
2010,08,13,03,55,16.10
2010,08,13,03,56,16.10
2010,08,13,03,57,16.10
2010,08,13,03,58,16.10
2010,08,13,03,59,16.10
2010,08,13,04,00,16.10
2010,08,13,04,01,16.10
2010,08,13,04,02,16.10
2010,08,13,04,03,16.10
2010,08,13,04,04,16.10
2010,08,13,04,05,16.10
2010,08,13,04,06,16.20
2010,08,13,04,07,16.20
2010,08,13,04,08,16.20
2010,08,13,04,09,16.20
2010,08,13,04,10,16.20
2010,08,13,04,11,16.20
2010,08,13,04,12,16.20
2010,08,13,04,13,16.20
2010,08,13,04,14,16.20
2010,08,13,04,15,16.20
2010,08,13,04,16,16.20
2010,08,13,04,17,16.20
2010,08,13,04,18,16.20
2010,08,13,04,19,16.20
2010,08,13,04,20,16.10
2010,08,13,04,21,16.10
2010,08,13,04,22,16.10
2010,08,13,04,23,16.10
2010,08,13,04,24,16.10
2010,08,13,04,25,16.10
2010,08,13,04,26,16.10
2010,08,13,04,27,16.00
2010,08,13,04,28,15.90
2010,08,13,04,29,15.90
2010,08,13,04,30,15.90
2010,08,13,04,31,15.90
2010,08,13,04,32,15.80
2010,08,13,04,33,15.80
2010,08,13,04,34,15.80
2010,08,13,04,35,15.80
2010,08,13,04,36,15.80
2010,08,13,04,37,15.80
2010,08,13,04,38,15.80
2010,08,13,04,39,15.80
2010,08,13,04,40,15.80
2010,08,13,04,41,15.80
2010,08,13,04,42,15.80
2010,08,13,04,43,15.80
2010,08,13,04,44,15.80
2010,08,13,04,45,15.70
2010,08,13,04,46,15.70
2010,08,13,04,47,15.70
2010,08,13,04,48,15.60
2010,08,13,04,49,15.60
2010,08,13,04,50,15.50
2010,08,13,04,51,15.50
2010,08,13,04,52,15.50
2010,08,13,04,53,15.50
2010,08,13,04,54,15.50
2010,08,13,04,55,15.50
2010,08,13,04,56,15.50
2010,08,13,04,57,15.50
2010,08,13,04,58,15.50
2010,08,13,04,59,15.60
2010,08,13,05,00,15.60
2010,08,13,05,01,15.70
2010,08,13,05,02,15.70
2010,08,13,05,03,15.80
2010,08,13,05,04,15.80
2010,08,13,05,05,15.80
2010,08,13,05,06,15.80
2010,08,13,05,07,15.80
2010,08,13,05,08,15.80
2010,08,13,05,09,15.80
2010,08,13,05,10,15.80
2010,08,13,05,11,15.80
2010,08,13,05,12,15.80
2010,08,13,05,13,15.80
2010,08,13,05,14,15.70
2010,08,13,05,15,15.70
2010,08,13,05,16,15.70
2010,08,13,05,17,15.70
2010,08,13,05,18,15.60
2010,08,13,05,19,15.60
2010,08,13,05,20,15.60
2010,08,13,05,21,15.60
2010,08,13,05,22,15.60
2010,08,13,05,23,15.60
2010,08,13,05,24,15.60
2010,08,13,05,25,15.60
2010,08,13,05,26,15.60
2010,08,13,05,27,15.60
2010,08,13,05,28,15.60
2010,08,13,05,29,15.60
2010,08,13,05,30,15.60
2010,08,13,05,31,15.50
2010,08,13,05,32,15.50
2010,08,13,05,33,15.50
2010,08,13,05,34,15.50
2010,08,13,05,35,15.40
2010,08,13,05,36,15.30
2010,08,13,05,37,15.30
2010,08,13,05,38,15.30
2010,08,13,05,39,15.30
2010,08,13,05,40,15.30
2010,08,13,05,41,15.30
2010,08,13,05,42,15.30
2010,08,13,05,43,15.40
2010,08,13,05,44,15.40
2010,08,13,05,45,15.50
2010,08,13,05,46,15.60
2010,08,13,05,47,15.60
2010,08,13,05,48,15.70
2010,08,13,05,49,15.70
2010,08,13,05,50,15.70
2010,08,13,05,51,15.80
2010,08,13,05,52,15.80
2010,08,13,05,53,15.80
2010,08,13,05,54,15.80
2010,08,13,05,55,15.80
2010,08,13,05,56,15.80
2010,08,13,05,57,15.80
2010,08,13,05,58,15.80
2010,08,13,05,59,15.70
2010,08,13,06,00,15.70
2010,08,13,06,01,15.70
2010,08,13,06,02,15.70
2010,08,13,06,03,15.70
2010,08,13,06,04,15.70
2010,08,13,06,05,15.70
2010,08,13,06,06,15.70
2010,08,13,06,07,15.60
2010,08,13,06,08,15.60
2010,08,13,06,09,15.60
2010,08,13,06,10,15.60
2010,08,13,06,11,15.50
2010,08,13,06,12,15.50
2010,08,13,06,13,15.40
2010,08,13,06,14,15.40
2010,08,13,06,15,15.40
2010,08,13,06,16,15.40
2010,08,13,06,17,15.40
2010,08,13,06,18,15.50
2010,08,13,06,19,15.50
2010,08,13,06,20,15.50
2010,08,13,06,21,15.50
2010,08,13,06,22,15.60
2010,08,13,06,23,15.60
2010,08,13,06,24,15.70
2010,08,13,06,25,15.70
2010,08,13,06,26,15.70
2010,08,13,06,27,15.70
2010,08,13,06,28,15.70
2010,08,13,06,29,15.70
2010,08,13,06,30,15.70
2010,08,13,06,31,15.70
2010,08,13,06,32,15.70
2010,08,13,06,33,15.70
2010,08,13,06,34,15.70
2010,08,13,06,35,15.70
2010,08,13,06,36,15.60
2010,08,13,06,37,15.60
2010,08,13,06,38,15.60
2010,08,13,06,39,15.70
2010,08,13,06,40,15.70
2010,08,13,06,41,15.70
2010,08,13,06,42,15.80
2010,08,13,06,43,15.80
2010,08,13,06,44,15.80
2010,08,13,06,45,15.80
2010,08,13,06,46,15.90
2010,08,13,06,47,15.90
2010,08,13,06,48,16.10
2010,08,13,06,49,16.10
2010,08,13,06,50,16.10
2010,08,13,06,51,16.10
2010,08,13,06,52,16.10
2010,08,13,06,53,16.10
2010,08,13,06,54,16.10
2010,08,13,06,55,16.10
2010,08,13,06,56,16.10
2010,08,13,06,57,16.10
2010,08,13,06,58,16.10
2010,08,13,06,59,16.10
2010,08,13,07,00,16.10
2010,08,13,07,01,16.10
2010,08,13,07,02,16.20
2010,08,13,07,03,16.20
2010,08,13,07,04,16.20
2010,08,13,07,05,16.20
2010,08,13,07,06,16.30
2010,08,13,07,07,16.40
2010,08,13,07,08,16.40
2010,08,13,07,09,16.50
2010,08,13,07,10,16.60
2010,08,13,07,11,16.70
2010,08,13,07,12,16.70
2010,08,13,07,13,16.70
2010,08,13,07,14,16.70
2010,08,13,07,15,16.70
2010,08,13,07,16,16.70
2010,08,13,07,17,16.70
2010,08,13,07,18,16.70
2010,08,13,07,19,16.70
2010,08,13,07,20,16.70
2010,08,13,07,21,16.70
2010,08,13,07,22,16.60
2010,08,13,07,23,16.60
2010,08,13,07,24,16.60
2010,08,13,07,25,16.60
2010,08,13,07,26,16.60
2010,08,13,07,27,16.60
2010,08,13,07,28,16.60
2010,08,13,07,29,16.60
2010,08,13,07,30,16.60
2010,08,13,07,31,16.60
2010,08,13,07,32,16.60
2010,08,13,07,33,16.60
2010,08,13,07,34,16.60
2010,08,13,07,35,16.70
2010,08,13,07,36,16.70
2010,08,13,07,37,16.70
2010,08,13,07,38,16.70
2010,08,13,07,39,16.70
2010,08,13,07,40,16.80
2010,08,13,07,41,16.80
2010,08,13,07,42,16.90
2010,08,13,07,43,16.90
2010,08,13,07,44,17.00
2010,08,13,07,45,17.10
2010,08,13,07,46,17.20
2010,08,13,07,47,17.30
2010,08,13,07,48,17.30
2010,08,13,07,49,17.30
2010,08,13,07,50,17.40
2010,08,13,07,51,17.40
2010,08,13,07,52,17.50
2010,08,13,07,53,17.50
2010,08,13,07,54,17.60
2010,08,13,07,55,17.60
2010,08,13,07,56,17.70
2010,08,13,07,57,17.70
2010,08,13,07,58,17.70
2010,08,13,07,59,17.80
2010,08,13,08,00,17.80
2010,08,13,08,01,17.80
2010,08,13,08,02,17.90
2010,08,13,08,03,17.90
2010,08,13,08,04,17.90
2010,08,13,08,05,17.90
2010,08,13,08,06,17.90
2010,08,13,08,07,17.90
2010,08,13,08,08,17.90
2010,08,13,08,09,17.90
2010,08,13,08,10,18.00
2010,08,13,08,11,18.10
2010,08,13,08,12,18.10
2010,08,13,08,13,18.10
2010,08,13,08,14,18.10
2010,08,13,08,15,18.20
2010,08,13,08,16,18.20
2010,08,13,08,17,18.20
2010,08,13,08,18,18.20
2010,08,13,08,19,18.20
2010,08,13,08,20,18.20
2010,08,13,08,21,18.20
2010,08,13,08,22,18.20
2010,08,13,08,23,18.20
2010,08,13,08,24,18.20
2010,08,13,08,25,18.20
2010,08,13,08,26,18.20
2010,08,13,08,27,18.20
2010,08,13,08,28,18.20
2010,08,13,08,29,18.20
2010,08,13,08,30,18.20
2010,08,13,08,31,18.20
2010,08,13,08,32,18.30
2010,08,13,08,33,18.30
2010,08,13,08,34,18.30
2010,08,13,08,35,18.30
2010,08,13,08,36,18.40
2010,08,13,08,37,18.40
2010,08,13,08,38,18.40
2010,08,13,08,39,18.50
2010,08,13,08,40,18.50
2010,08,13,08,41,18.50
2010,08,13,08,42,18.50
2010,08,13,08,43,18.60
2010,08,13,08,44,18.60
2010,08,13,08,45,18.70
2010,08,13,08,46,18.70
2010,08,13,08,47,18.80
2010,08,13,08,48,18.80
2010,08,13,08,49,18.90
2010,08,13,08,50,18.90
2010,08,13,08,51,18.90
2010,08,13,08,52,18.90
2010,08,13,08,53,19.00
2010,08,13,08,54,19.10
2010,08,13,08,55,19.10
2010,08,13,08,56,19.10
2010,08,13,08,57,19.10
2010,08,13,08,58,19.10
2010,08,13,08,59,19.10
2010,08,13,09,00,19.10
2010,08,13,09,01,19.10
2010,08,13,09,02,19.20
2010,08,13,09,03,19.20
2010,08,13,09,04,19.20
2010,08,13,09,05,19.30
2010,08,13,09,06,19.30
2010,08,13,09,07,19.40
2010,08,13,09,08,19.40
2010,08,13,09,09,19.40
2010,08,13,09,10,19.50
2010,08,13,09,11,19.50
2010,08,13,09,12,19.50
2010,08,13,09,13,19.60
2010,08,13,09,14,19.60
2010,08,13,09,15,19.70
2010,08,13,09,16,19.70
2010,08,13,09,17,19.80
2010,08,13,09,18,19.80
2010,08,13,09,19,19.90
2010,08,13,09,20,19.90
2010,08,13,09,21,19.90
2010,08,13,09,22,19.90
2010,08,13,09,23,20.00
2010,08,13,09,24,20.10
2010,08,13,09,25,20.20
2010,08,13,09,26,20.20
2010,08,13,09,27,20.20
2010,08,13,09,28,20.20
2010,08,13,09,29,20.20
2010,08,13,09,30,20.20
2010,08,13,09,31,20.30
2010,08,13,09,32,20.30
2010,08,13,09,33,20.30
2010,08,13,09,34,20.40
2010,08,13,09,35,20.40
2010,08,13,09,36,20.40
2010,08,13,09,37,20.50
2010,08,13,09,38,20.50
2010,08,13,09,39,20.50
2010,08,13,09,40,20.50
2010,08,13,09,41,20.60
2010,08,13,09,42,20.60
2010,08,13,09,43,20.60
2010,08,13,09,44,20.60
2010,08,13,09,45,20.60
2010,08,13,09,46,20.60
2010,08,13,09,47,20.60
2010,08,13,09,48,20.70
2010,08,13,09,49,20.70
2010,08,13,09,50,20.80
2010,08,13,09,51,20.80
2010,08,13,09,52,20.90
2010,08,13,09,53,21.00
2010,08,13,09,54,21.00
2010,08,13,09,55,21.00
2010,08,13,09,56,21.00
2010,08,13,09,57,20.90
2010,08,13,09,58,20.80
2010,08,13,09,59,20.80
2010,08,13,10,00,20.80
2010,08,13,10,01,20.80
2010,08,13,10,02,20.80
2010,08,13,10,03,20.80
2010,08,13,10,04,20.90
2010,08,13,10,05,20.90
2010,08,13,10,06,20.90
2010,08,13,10,07,21.00
2010,08,13,10,08,21.00
2010,08,13,10,09,21.10
2010,08,13,10,10,21.20
2010,08,13,10,11,21.30
2010,08,13,10,12,21.30
2010,08,13,10,13,21.30
2010,08,13,10,14,21.30
2010,08,13,10,15,21.40
2010,08,13,10,16,21.40
2010,08,13,10,17,21.40
2010,08,13,10,18,21.60
2010,08,13,10,19,21.60
2010,08,13,10,20,21.60
2010,08,13,10,21,21.60
2010,08,13,10,22,21.60
2010,08,13,10,23,21.70
2010,08,13,10,24,21.80
2010,08,13,10,25,21.90
2010,08,13,10,26,22.00
2010,08,13,10,27,22.10
2010,08,13,10,28,22.20
2010,08,13,10,29,22.30
2010,08,13,10,30,22.30
2010,08,13,10,31,22.40
2010,08,13,10,32,22.40
2010,08,13,10,33,22.50
2010,08,13,10,34,22.60
2010,08,13,10,35,22.70
2010,08,13,10,36,22.70
2010,08,13,10,37,22.70
2010,08,13,10,38,22.80
2010,08,13,10,39,22.80
2010,08,13,10,40,22.70
2010,08,13,10,41,22.70
2010,08,13,10,42,22.70
2010,08,13,10,43,22.80
2010,08,13,10,44,22.90
2010,08,13,10,45,22.90
2010,08,13,10,46,22.90
2010,08,13,10,47,22.90
2010,08,13,10,48,22.90
2010,08,13,10,49,23.00
2010,08,13,10,50,23.10
2010,08,13,10,51,23.10
2010,08,13,10,52,23.10
2010,08,13,10,53,23.10
2010,08,13,10,54,23.20
2010,08,13,10,55,23.20
2010,08,13,10,56,23.10
2010,08,13,10,57,23.20
2010,08,13,10,58,23.20
2010,08,13,10,59,23.20
2010,08,13,11,00,23.20
2010,08,13,11,01,23.20
2010,08,13,11,02,23.20
2010,08,13,11,03,23.30
2010,08,13,11,04,23.40
2010,08,13,11,05,23.60
2010,08,13,11,06,23.70
2010,08,13,11,07,23.70
2010,08,13,11,08,23.80
2010,08,13,11,09,23.90
2010,08,13,11,10,23.90
2010,08,13,11,11,23.90
2010,08,13,11,12,24.00
2010,08,13,11,13,24.10
2010,08,13,11,14,24.10
2010,08,13,11,15,24.10
2010,08,13,11,16,24.00
2010,08,13,11,17,24.00
2010,08,13,11,18,24.10
2010,08,13,11,19,24.10
2010,08,13,11,20,24.20
2010,08,13,11,21,24.20
2010,08,13,11,22,24.20
2010,08,13,11,23,24.20
2010,08,13,11,24,24.30
2010,08,13,11,25,24.30
2010,08,13,11,26,24.30
2010,08,13,11,27,24.40
2010,08,13,11,28,24.40
2010,08,13,11,29,24.40
2010,08,13,11,30,24.40
2010,08,13,11,31,24.30
2010,08,13,11,32,24.30
2010,08,13,11,33,24.30
2010,08,13,11,34,24.30
2010,08,13,11,35,24.40
2010,08,13,11,36,24.40
2010,08,13,11,37,24.50
2010,08,13,11,38,24.50
2010,08,13,11,39,24.50
2010,08,13,11,40,24.50
2010,08,13,11,41,24.50
2010,08,13,11,42,24.50
2010,08,13,11,43,24.50
2010,08,13,11,44,24.50
2010,08,13,11,45,24.40
2010,08,13,11,46,24.40
2010,08,13,11,47,24.40
2010,08,13,11,48,24.40
2010,08,13,11,49,24.50
2010,08,13,11,50,24.50
2010,08,13,11,51,24.50
2010,08,13,11,52,24.50
2010,08,13,11,53,24.50
2010,08,13,11,54,24.50
2010,08,13,11,55,24.60
2010,08,13,11,56,24.60
2010,08,13,11,57,24.60
2010,08,13,11,58,24.60
2010,08,13,11,59,24.50
2010,08,13,12,00,24.40
2010,08,13,12,01,24.20
2010,08,13,12,02,24.20
2010,08,13,12,03,24.20
2010,08,13,12,04,24.20
2010,08,13,12,05,24.30
2010,08,13,12,06,24.30
2010,08,13,12,07,24.30
2010,08,13,12,08,24.20
2010,08,13,12,09,24.10
2010,08,13,12,10,24.10
2010,08,13,12,11,24.10
2010,08,13,12,12,24.10
2010,08,13,12,13,24.20
2010,08,13,12,14,24.20
2010,08,13,12,15,24.30
2010,08,13,12,16,24.30
2010,08,13,12,17,24.40
2010,08,13,12,18,24.50
2010,08,13,12,19,24.50
2010,08,13,12,20,24.60
2010,08,13,12,21,24.70
2010,08,13,12,22,24.70
2010,08,13,12,23,24.70
2010,08,13,12,24,24.70
2010,08,13,12,25,24.70
2010,08,13,12,26,24.80
2010,08,13,12,27,24.80
2010,08,13,12,28,24.80
2010,08,13,12,29,24.90
2010,08,13,12,30,24.90
2010,08,13,12,31,24.90
2010,08,13,12,32,24.90
2010,08,13,12,33,24.90
2010,08,13,12,34,24.80
2010,08,13,12,35,24.90
2010,08,13,12,36,24.90
2010,08,13,12,37,24.90
2010,08,13,12,38,24.90
2010,08,13,12,39,24.90
2010,08,13,12,40,24.90
2010,08,13,12,41,24.90
2010,08,13,12,42,25.00
2010,08,13,12,43,25.00
2010,08,13,12,44,25.10
2010,08,13,12,45,25.20
2010,08,13,12,46,25.20
2010,08,13,12,47,25.20
2010,08,13,12,48,25.20
2010,08,13,12,49,25.20
2010,08,13,12,50,25.20
2010,08,13,12,51,25.30
2010,08,13,12,52,25.40
2010,08,13,12,53,25.50
2010,08,13,12,54,25.60
2010,08,13,12,55,25.70
2010,08,13,12,56,25.80
2010,08,13,12,57,25.80
2010,08,13,12,58,25.80
2010,08,13,12,59,25.80
2010,08,13,13,00,25.80
2010,08,13,13,01,25.80
2010,08,13,13,02,25.80
2010,08,13,13,03,25.80
2010,08,13,13,04,25.80
2010,08,13,13,05,25.90
2010,08,13,13,06,25.90
2010,08,13,13,07,26.00
2010,08,13,13,08,26.00
2010,08,13,13,09,26.10
2010,08,13,13,10,26.00
2010,08,13,13,11,26.00
2010,08,13,13,12,26.00
2010,08,13,13,13,26.10
2010,08,13,13,14,26.20
2010,08,13,13,15,26.20
2010,08,13,13,16,26.30
2010,08,13,13,17,26.40
2010,08,13,13,18,26.40
2010,08,13,13,19,26.50
2010,08,13,13,20,26.60
2010,08,13,13,21,26.60
2010,08,13,13,22,26.70
2010,08,13,13,23,26.70
2010,08,13,13,24,26.70
2010,08,13,13,25,26.70
2010,08,13,13,26,26.70
2010,08,13,13,27,26.70
2010,08,13,13,28,26.70
2010,08,13,13,29,26.70
2010,08,13,13,30,26.70
2010,08,13,13,31,26.70
2010,08,13,13,32,26.70
2010,08,13,13,33,26.70
2010,08,13,13,34,26.70
2010,08,13,13,35,26.60
2010,08,13,13,36,26.70
2010,08,13,13,37,26.70
2010,08,13,13,38,26.80
2010,08,13,13,39,26.80
2010,08,13,13,40,26.80
2010,08,13,13,41,26.90
2010,08,13,13,42,26.80
2010,08,13,13,43,26.80
2010,08,13,13,44,26.90
2010,08,13,13,45,27.00
2010,08,13,13,46,27.10
2010,08,13,13,47,27.20
2010,08,13,13,48,27.30
2010,08,13,13,49,27.30
2010,08,13,13,50,27.30
2010,08,13,13,51,27.30
2010,08,13,13,52,27.30
2010,08,13,13,53,27.30
2010,08,13,13,54,27.30
2010,08,13,13,55,27.30
2010,08,13,13,56,27.40
2010,08,13,13,57,27.40
2010,08,13,13,58,27.40
2010,08,13,13,59,27.30
2010,08,13,14,00,27.30
2010,08,13,14,01,27.20
2010,08,13,14,02,27.10
2010,08,13,14,03,27.10
2010,08,13,14,04,27.10
2010,08,13,14,05,27.20
2010,08,13,14,06,27.20
2010,08,13,14,07,27.20
2010,08,13,14,08,27.20
2010,08,13,14,09,27.30
2010,08,13,14,10,27.40
2010,08,13,14,11,27.60
2010,08,13,14,12,27.70
2010,08,13,14,13,27.90
2010,08,13,14,14,28.00
2010,08,13,14,15,28.10
2010,08,13,14,16,28.10
2010,08,13,14,17,28.20
2010,08,13,14,18,28.20
2010,08,13,14,19,28.20
2010,08,13,14,20,28.20
2010,08,13,14,21,28.20
2010,08,13,14,22,28.20
2010,08,13,14,23,28.20
2010,08,13,14,24,28.10
2010,08,13,14,25,28.10
2010,08,13,14,26,28.10
2010,08,13,14,27,28.10
2010,08,13,14,28,28.20
2010,08,13,14,29,28.30
2010,08,13,14,30,28.40
2010,08,13,14,31,28.40
2010,08,13,14,32,28.50
2010,08,13,14,33,28.60
2010,08,13,14,34,28.60
2010,08,13,14,35,28.60
2010,08,13,14,36,28.60
2010,08,13,14,37,28.60
2010,08,13,14,38,28.60
2010,08,13,14,39,28.60
2010,08,13,14,40,28.70
2010,08,13,14,41,28.80
2010,08,13,14,42,28.80
2010,08,13,14,43,28.80
2010,08,13,14,44,28.80
2010,08,13,14,45,28.80
2010,08,13,14,46,28.80
2010,08,13,14,47,28.80
2010,08,13,14,48,28.70
2010,08,13,14,49,28.70
2010,08,13,14,50,28.70
2010,08,13,14,51,28.60
2010,08,13,14,52,28.70
2010,08,13,14,53,28.70
2010,08,13,14,54,28.70
2010,08,13,14,55,28.70
2010,08,13,14,56,28.70
2010,08,13,14,57,28.80
2010,08,13,14,58,28.90
2010,08,13,14,59,29.00
2010,08,13,15,00,29.10
2010,08,13,15,01,29.20
2010,08,13,15,02,29.30
2010,08,13,15,03,29.40
2010,08,13,15,04,29.40
2010,08,13,15,05,29.50
2010,08,13,15,06,29.50
2010,08,13,15,07,29.50
2010,08,13,15,08,29.40
2010,08,13,15,09,29.40
2010,08,13,15,10,29.40
2010,08,13,15,11,29.50
2010,08,13,15,12,29.60
2010,08,13,15,13,29.70
2010,08,13,15,14,29.70
2010,08,13,15,15,29.70
2010,08,13,15,16,29.80
2010,08,13,15,17,29.80
2010,08,13,15,18,29.80
2010,08,13,15,19,29.80
2010,08,13,15,20,29.70
2010,08,13,15,21,29.70
2010,08,13,15,22,29.80
2010,08,13,15,23,29.90
2010,08,13,15,24,30.00
2010,08,13,15,25,30.10
2010,08,13,15,26,30.10
2010,08,13,15,27,30.10
2010,08,13,15,28,30.10
2010,08,13,15,29,30.20
2010,08,13,15,30,30.20
2010,08,13,15,31,30.20
2010,08,13,15,32,30.30
2010,08,13,15,33,30.30
2010,08,13,15,34,30.30
2010,08,13,15,35,30.30
2010,08,13,15,36,30.30
2010,08,13,15,37,30.20
2010,08,13,15,38,30.20
2010,08,13,15,39,30.20
2010,08,13,15,40,30.20
2010,08,13,15,41,30.20
2010,08,13,15,42,30.30
2010,08,13,15,43,30.30
2010,08,13,15,44,30.40
2010,08,13,15,45,30.40
2010,08,13,15,46,30.50
2010,08,13,15,47,30.60
2010,08,13,15,48,30.60
2010,08,13,15,49,30.60
2010,08,13,15,50,30.60
2010,08,13,15,51,30.60
2010,08,13,15,52,30.60
2010,08,13,15,53,30.60
2010,08,13,15,54,30.60
2010,08,13,15,55,30.50
2010,08,13,15,56,30.40
2010,08,13,15,57,30.40
2010,08,13,15,58,30.30
2010,08,13,15,59,30.30
2010,08,13,16,00,30.30
2010,08,13,16,01,30.30
2010,08,13,16,02,30.30
2010,08,13,16,03,30.30
2010,08,13,16,04,30.40
2010,08,13,16,05,30.60
2010,08,13,16,06,30.60
2010,08,13,16,07,30.60
2010,08,13,16,08,30.60
2010,08,13,16,09,30.60
2010,08,13,16,10,30.60
2010,08,13,16,11,30.40
2010,08,13,16,12,30.40
2010,08,13,16,13,30.40
2010,08,13,16,14,30.30
2010,08,13,16,15,30.30
2010,08,13,16,16,30.30
2010,08,13,16,17,30.30
2010,08,13,16,18,30.30
2010,08,13,16,19,30.40
2010,08,13,16,20,30.40
2010,08,13,16,21,30.40
2010,08,13,16,22,30.50
2010,08,13,16,23,30.60
2010,08,13,16,24,30.60
2010,08,13,16,25,30.60
2010,08,13,16,26,30.70
2010,08,13,16,27,30.80
2010,08,13,16,28,30.80
2010,08,13,16,29,30.80
2010,08,13,16,30,30.80
2010,08,13,16,31,30.80
2010,08,13,16,32,30.80
2010,08,13,16,33,30.80
2010,08,13,16,34,30.80
2010,08,13,16,35,30.80
2010,08,13,16,36,30.70
2010,08,13,16,37,30.70
2010,08,13,16,38,30.70
2010,08,13,16,39,30.70
2010,08,13,16,40,30.70
2010,08,13,16,41,30.70
2010,08,13,16,42,30.70
2010,08,13,16,43,30.80
2010,08,13,16,44,30.80
2010,08,13,16,45,30.80
2010,08,13,16,46,30.80
2010,08,13,16,47,30.70
2010,08,13,16,48,30.60
2010,08,13,16,49,30.60
2010,08,13,16,50,30.60
2010,08,13,16,51,30.60
2010,08,13,16,52,30.60
2010,08,13,16,53,30.60
2010,08,13,16,54,30.60
2010,08,13,16,55,30.60
2010,08,13,16,56,30.60
2010,08,13,16,57,30.60
2010,08,13,16,58,30.70
2010,08,13,16,59,30.70
2010,08,13,17,00,30.70
2010,08,13,17,01,30.70
2010,08,13,17,02,30.60
2010,08,13,17,03,30.60
2010,08,13,17,04,30.60
2010,08,13,17,05,30.60
2010,08,13,17,06,30.70
2010,08,13,17,07,30.70
2010,08,13,17,08,30.80
2010,08,13,17,09,30.80
2010,08,13,17,10,30.80
2010,08,13,17,11,30.80
2010,08,13,17,12,30.80
2010,08,13,17,13,30.80
2010,08,13,17,14,30.80
2010,08,13,17,15,30.70
2010,08,13,17,16,30.70
2010,08,13,17,17,30.60
2010,08,13,17,18,30.60
2010,08,13,17,19,30.70